Total_Precipitation_Accumulation
1.01 1.02 0.91 0.79 0.73 0.81 0.97 1.05 1.06 0.89 0.76 0.65 0.54 0.33 0.27 0.27 0.25 0.22 0.24 0.16 0.08 0.06 0.06 0.06 0.07 0.09 0.12 0.17 0.21 0.25 0.30 0.34 0.37 0.40 0.41 0.42 0.42 0.43
1.15 1.11 1.07 0.97 0.93 0.93 0.99 1.06 1.07 1.00 0.77 0.69 0.68 0.48 0.32 0.26 0.22 0.18 0.19 0.14 0.08 0.06 0.05 0.04 0.04 0.06 0.08 0.10 0.12 0.14 0.16 0.21 0.25 0.31 0.33 0.33 0.33 0.36
0.94 0.99 1.04 1.04 1.00 0.99 0.97 0.94 0.99 0.99 0.75 0.80 0.91 0.73 0.52 0.41 0.33 0.27 0.23 0.20 0.17 0.11 0.07 0.05 0.05 0.06 0.08 0.10 0.11 0.12 0.14 0.17 0.20 0.23 0.27 0.29 0.28 0.29
0.76 0.78 0.76 0.75 0.76 0.79 0.80 0.79 0.83 0.92 0.80 0.83 1.07 1.06 0.81 0.53 0.45 0.39 0.30 0.25 0.24 0.19 0.12 0.09 0.08 0.09 0.10 0.12 0.14 0.17 0.17 0.19 0.21 0.23 0.26 0.29 0.29 0.29
0.58 0.52 0.45 0.44 0.46 0.49 0.53 0.58 0.64 0.83 0.81 0.89 1.12 1.11 0.90 0.68 0.60 0.49 0.42 0.42 0.34 0.29 0.20 0.13 0.10 0.09 0.11 0.13 0.17 0.24 0.26 0.25 0.26 0.28 0.31 0.33 0.35 0.37
0.39 0.32 0.26 0.27 0.30 0.34 0.40 0.42 0.45 0.55 0.62 0.74 0.95 1.01 0.93 0.81 0.79 0.68 0.61 0.57 0.49 0.39 0.36 0.24 0.19 0.15 0.14 0.14 0.17 0.26 0.36 0.39 0.39 0.39 0.42 0.45 0.47 0.47
0.27 0.18 0.15 0.17 0.17 0.17 0.22 0.27 0.31 0.44 0.50 0.57 0.72 0.91 0.88 0.75 0.74 0.78 0.76 0.74 0.67 0.57 0.59 0.46 0.36 0.29 0.22 0.19 0.20 0.28 0.43 0.55 0.57 0.57 0.58 0.60 0.64 0.67
0.17 0.12 0.09 0.11 0.15 0.17 0.19 0.18 0.17 0.23 0.37 0.52 0.61 0.67 0.68 0.69 0.75 0.80 0.84 0.82 0.85 0.78 0.84 0.82 0.74 0.66 0.51 0.34 0.26 0.27 0.38 0.58 0.70 0.71 0.74 0.75 0.77 0.79
0.07 0.06 0.05 0.05 0.09 0.11 0.11 0.09 0.09 0.09 0.16 0.31 0.37 0.43 0.51 0.56 0.71 0.86 0.97 1.05 1.13 1.10 1.14 1.23 1.18 1.15 0.78 0.62 0.53 0.40 0.36 0.43 0.57 0.69 0.72 0.79 0.85 0.87
0.02 0.02 0.02 0.02 0.02 0.02 0.07 0.07 0.03 0.01 0.02 0.06 0.08 0.17 0.46 0.62 0.62 0.72 0.89 1.01 1.12 1.19 1.27 1.49 1.42 1.43 1.15 0.80 0.58 0.40 0.34 0.33 0.40 0.53 0.64 0.72 0.84 0.95
0.01 0.00 0.01 0.01 0.01 0.01 0.03 0.04 0.02 0.01 0.00 0.00 0.01 0.03 0.11 0.29 0.46 0.54 0.62 0.79 1.11 1.29 1.31 1.49 1.56 1.51 1.55 1.35 0.87 0.52 0.32 0.28 0.31 0.38 0.48 0.60 0.70 0.81
0.00 0.00 0.00 0.00 0.00 0.00 0.01 0.01 0.01 0.01 0.00 0.00 0.01 0.01 0.01 0.02 0.04 0.10 0.18 0.32 0.55 0.83 0.96 1.21 1.49 1.55 1.74 1.85 1.49 0.98 0.64 0.44 0.34 0.32 0.37 0.45 0.56 0.60
0.00 0.00 0.00 0.00 0.00 0.00 0.00 0.00 0.00 0.00 0.00 0.00 0.01 0.02 0.03 0.03 0.02 0.02 0.04 0.11 0.20 0.32 0.39 0.52 0.79 1.01 1.34 1.71 1.69 1.34 1.05 0.86 0.66 0.50 0.43 0.44 0.50 0.56
0.00 0.00 0.00 0.00 0.00 0.00 0.00 0.00 0.00 0.00 0.00 0.00 0.00 0.00 0.01 0.01 0.01 0.01 0.02 0.04 0.08 0.13 0.17 0.25 0.40 0.46 0.57 0.86 1.13 1.11 0.99 0.94 0.96 0.94 0.79 0.69 0.60 0.62
0.00 0.00 0.00 0.00 0.00 0.00 0.00 0.00 0.00 0.00 0.00 0.00 0.00 0.01 0.00 0.00 0.00 0.01 0.01 0.02 0.02 0.03 0.04 0.08 0.15 0.23 0.32 0.45 0.59 0.68 0.72 0.77 0.92 1.10 1.13 1.01 0.89 0.81
0.00 0.00 0.00 0.00 0.00 0.00 0.00 0.00 0.00 0.00 0.00 0.00 0.00 0.00 0.00 0.00 0.00 0.00 0.01 0.01 0.03 0.03 0.03 0.03 0.05 0.10 0.18 0.27 0.34 0.41 0.48 0.57 0.66 0.85 1.08 1.20 1.20 1.13
0.00 0.01 0.01 0.01 0.01 0.00 0.00 0.00 0.00 0.00 0.00 0.00 0.00 0.00 0.00 0.00 0.01 0.01 0.01 0.01 0.01 0.03 0.03 0.03 0.04 0.06 0.09 0.15 0.26 0.31 0.33 0.40 0.48 0.54 0.65 0.79 0.88 0.92
0.00 0.01 0.01 0.01 0.00 0.00 0.00 0.00 0.00 0.00 0.00 0.00 0.01 0.01 0.01 0.01 0.01 0.01 0.01 0.01 0.01 0.02 0.03 0.04 0.04 0.07 0.11 0.13 0.12 0.19 0.25 0.28 0.33 0.37 0.41 0.46 0.48 0.42
0.00 0.00 0.00 0.00 0.00 0.00 0.00 0.00 0.00 0.00 0.00 0.00 0.00 0.00 0.00 0.00 0.00 0.00 0.01 0.02 0.03 0.03 0.04 0.06 0.08 0.08 0.11 0.15 0.16 0.09 0.11 0.17 0.22 0.27 0.30 0.30 0.31 0.28
0.00 0.00 0.00 0.00 0.00 0.00 0.00 0.00 0.00 0.00 0.00 0.00 0.00 0.00 0.00 0.00 0.00 0.00 0.00 0.01 0.02 0.04 0.04 0.06 0.09 0.13 0.14 0.14 0.16 0.19 0.09 0.07 0.11 0.15 0.17 0.18 0.20 0.16
0.00 0.00 0.00 0.00 0.00 0.00 0.00 0.00 0.00 0.00 0.00 0.00 0.00 0.00 0.00 0.00 0.00 0.00 0.00 0.01 0.02 0.02 0.03 0.04 0.05 0.09 0.13 0.20 0.24 0.27 0.25 0.14 0.08 0.08 0.09 0.11 0.16 0.20
0.00 0.00 0.00 0.00 0.00 0.00 0.00 0.00 0.00 0.00 0.00 0.00 0.00 0.00 0.00 0.00 0.00 0.00 0.00 0.00 0.01 0.02 0.02 0.03 0.04 0.06 0.10 0.18 0.25 0.28 0.28 0.26 0.22 0.14 0.11 0.08 0.08 0.11
0.00 0.00 0.00 0.00 0.00 0.00 0.00 0.00 0.00 0.00 0.00 0.00 0.00 0.00 0.00 0.00 0.00 0.01 0.01 0.01 0.01 0.01 0.02 0.04 0.06 0.09 0.11 0.11 0.15 0.20 0.23 0.25 0.29 0.31 0.31 0.18 0.07 0.03